| time (UTC) | temp F | wind direction | speed MPH | gust MPH | rain 1hr in | rain 24hr in | rain mn in | humidity % | barometer mb |
| 20260901103518 | 57 | 5 | 0.0 | 1.0 | 0.00 | 0.01 | 0.00 | 91 | 1015.6 |
| 20260901103059 | 57 | 5 | 0.0 | 1.0 | 0.00 | 0.01 | 0.00 | 91 | 1012.3 |
| 20260901103035 | 57 | 5 | 0.0 | 2.0 | 0.00 | 0.01 | 0.00 | 91 | 1015.5 |
| 20260901102510 | 57 | 23 | 0.0 | 2.0 | 0.00 | 0.01 | 0.00 | 91 | 1015.5 |
| 20260901102010 | 57 | 17 | 0.0 | 3.0 | 0.00 | 0.01 | 0.00 | 91 | 1015.3 |
| 20260901101556 | 57 | 358 | 0.0 | 4.0 | 0.00 | 0.01 | 0.00 | 92 | 1012.0 |
| 20260901101519 | 57 | 358 | 1.0 | 4.0 | 0.00 | 0.01 | 0.00 | 91 | 1015.1 |
| 20260901101009 | 57 | 28 | 1.0 | 4.0 | 0.00 | 0.01 | 0.00 | 92 | 1015.1 |
| 20260901100510 | 56 | 197 | 0.0 | 0.0 | 0.00 | 0.01 | 0.00 | 90 | 1015.1 |
| 20260901100056 | 56 | 197 | 0.0 | 0.0 | 0.00 | 0.01 | 0.00 | 91 | 1011.8 |
| 20260901100023 | 56 | 197 | 0.0 | 0.0 | 0.00 | 0.01 | 0.00 | 90 | 1015.0 |
| 20260901095513 | 57 | 196 | 0.0 | 2.0 | 0.00 | 0.01 | 0.00 | 90 | 1014.9 |
| 20260901095014 | 57 | 197 | 1.0 | 2.0 | 0.00 | 0.01 | 0.00 | 90 | 1014.9 |
| 20260901094553 | 57 | 192 | 1.0 | 2.0 | 0.00 | 0.01 | 0.00 | 90 | 1011.6 |
| 20260901094529 | 57 | 199 | 1.0 | 2.0 | 0.00 | 0.01 | 0.00 | 90 | 1015.0 |
| 20260901094003 | 57 | 209 | 1.0 | 3.0 | 0.00 | 0.01 | 0.00 | 90 | 1015.0 |
| 20260901093509 | 57 | 245 | 1.0 | 3.0 | 0.00 | 0.01 | 0.00 | 90 | 1015.0 |
| 20260901093052 | 57 | 200 | 1.0 | 3.0 | 0.00 | 0.01 | 0.00 | 91 | 1011.7 |
| 20260901093013 | 57 | 210 | 1.0 | 2.0 | 0.00 | 0.01 | 0.00 | 90 | 1015.0 |
| 20260901092506 | 57 | 155 | 1.0 | 1.0 | 0.00 | 0.01 | 0.00 | 90 | 1014.9 |
| 20260901092008 | 57 | 151 | 0.0 | 1.0 | 0.00 | 0.01 | 0.00 | 90 | 1014.8 |
| 20260901091552 | 57 | 151 | 0.0 | 1.0 | 0.00 | 0.01 | 0.00 | 91 | 1011.4 |
| 20260901091515 | 57 | 151 | 1.0 | 1.0 | 0.00 | 0.01 | 0.00 | 90 | 1014.7 |
| 20260901091009 | 57 | 148 | 1.0 | 1.0 | 0.00 | 0.01 | 0.00 | 90 | 1014.7 |
| 20260901090508 | 57 | 193 | 0.0 | 0.0 | 0.00 | 0.01 | 0.00 | 90 | 1014.6 |
| 20260901090050 | 57 | 193 | 0.0 | 2.0 | 0.00 | 0.01 | 0.00 | 90 | 1011.4 |
| 20260901090027 | 57 | 193 | 0.0 | 2.0 | 0.00 | 0.01 | 0.00 | 89 | 1014.6 |
| 20260901085512 | 57 | 193 | 0.0 | 2.0 | 0.00 | 0.01 | 0.00 | 89 | 1014.6 |
| 20260901085014 | 57 | 188 | 1.0 | 2.0 | 0.00 | 0.01 | 0.00 | 89 | 1014.6 |
| 20260901084558 | 58 | 206 | 1.0 | 2.0 | 0.00 | 0.01 | 0.00 | 90 | 1011.3 |
| 20260901084527 | 58 | 208 | 1.0 | 2.0 | 0.00 | 0.01 | 0.00 | 90 | 1014.6 |
| 20260901084012 | 58 | 152 | 0.0 | 3.0 | 0.00 | 0.01 | 0.00 | 90 | 1014.6 |
| 20260901083516 | 58 | 152 | 1.0 | 3.0 | 0.00 | 0.01 | 0.00 | 90 | 1014.6 |
| 20260901083048 | 58 | 165 | 1.0 | 2.0 | 0.00 | 0.01 | 0.00 | 90 | 1011.3 |
| 20260901083033 | 58 | 155 | 1.0 | 2.0 | 0.00 | 0.01 | 0.00 | 90 | 1014.6 |
| 20260901082503 | 58 | 154 | 0.0 | 0.0 | 0.00 | 0.01 | 0.00 | 89 | 1014.5 |
| 20260901082007 | 58 | 155 | 0.0 | 3.0 | 0.00 | 0.01 | 0.00 | 89 | 1014.5 |
| 20260901081549 | 58 | 155 | 0.0 | 3.0 | 0.00 | 0.01 | 0.00 | 89 | 1011.3 |
| 20260901081512 | 58 | 154 | 0.0 | 3.0 | 0.00 | 0.01 | 0.00 | 89 | 1014.6 |
| 20260901081006 | 58 | 157 | 1.0 | 3.0 | 0.00 | 0.01 | 0.00 | 89 | 1014.6 |
| 20260901080509 | 58 | 146 | 1.0 | 3.0 | 0.00 | 0.01 | 0.00 | 90 | 1014.6 |
| 20260901080051 | 58 | 171 | 0.0 | 3.0 | 0.00 | 0.01 | 0.00 | 90 | 1011.3 |
| 20260901080016 | 58 | 171 | 1.0 | 3.0 | 0.00 | 0.01 | 0.00 | 90 | 1014.7 |
| 20260901075510 | 58 | 169 | 2.0 | 3.0 | 0.00 | 0.01 | 0.00 | 89 | 1014.7 |
| 20260901075011 | 58 | 141 | 0.0 | 3.0 | 0.00 | 0.01 | 0.00 | 89 | 1014.9 |
| 20260901074554 | 59 | 150 | 0.0 | 3.0 | 0.00 | 0.01 | 0.00 | 89 | 1011.7 |
| 20260901074530 | 59 | 150 | 1.0 | 3.0 | 0.00 | 0.01 | 0.00 | 89 | 1015.0 |
| 20260901074012 | 59 | 155 | 0.0 | 2.0 | 0.00 | 0.01 | 0.00 | 89 | 1014.9 |
| 20260901073516 | 59 | 152 | 0.0 | 1.0 | 0.00 | 0.01 | 0.00 | 89 | 1014.8 |
| 20260901073039 | 59 | 152 | 0.0 | 1.0 | 0.00 | 0.01 | 0.00 | 90 | 1011.5 |
| 20260901073034 | 59 | 152 | 0.0 | 1.0 | 0.00 | 0.01 | 0.00 | 89 | 1014.7 |
| 20260901072514 | 59 | 140 | 0.0 | 2.0 | 0.00 | 0.01 | 0.00 | 89 | 1014.7 |
| 20260901072015 | 60 | 140 | 0.0 | 3.0 | 0.00 | 0.01 | 0.00 | 89 | 1014.8 |
| 20260901071540 | 60 | 153 | 1.0 | 3.0 | 0.00 | 0.01 | 0.00 | 89 | 1011.6 |
| 20260901071532 | 60 | 151 | 1.0 | 3.0 | 0.00 | 0.01 | 0.00 | 89 | 1014.8 |
| 20260901071006 | 60 | 161 | 1.0 | 2.0 | 0.00 | 0.01 | 0.00 | 90 | 1014.8 |
| 20260901070506 | 60 | 150 | 0.0 | 2.0 | 0.00 | 0.01 | 0.00 | 90 | 1014.8 |
| 20260901070038 | 60 | 150 | 0.0 | 2.0 | 0.00 | 0.01 | 0.00 | 90 | 1011.5 |
| 20260901070022 | 60 | 150 | 1.0 | 2.0 | 0.00 | 0.01 | 0.00 | 89 | 1014.9 |
| 20260901065508 | 60 | 146 | 1.0 | 2.0 | 0.00 | 0.01 | 0.00 | 89 | 1014.9 |
| 20260901065010 | 60 | 153 | 0.0 | 2.0 | 0.00 | 0.01 | 0.00 | 89 | 1015.1 |
| 20260901064533 | 61 | 158 | 0.0 | 3.0 | 0.00 | 0.01 | 0.00 | 89 | 1011.7 |
| 20260901064525 | 61 | 158 | 1.0 | 3.0 | 0.00 | 0.01 | 0.00 | 89 | 1015.1 |
| 20260901064012 | 61 | 179 | 3.0 | 3.0 | 0.00 | 0.01 | 0.00 | 88 | 1015.1 |
| 20260901063511 | 61 | 169 | 2.0 | 2.0 | 0.00 | 0.01 | 0.00 | 88 | 1015.1 |
| 20260901063032 | 61 | 155 | 1.0 | 2.0 | 0.00 | 0.01 | 0.00 | 88 | 1011.7 |
| 20260901063030 | 61 | 150 | 1.0 | 2.0 | 0.00 | 0.01 | 0.00 | 88 | 1015.1 |
| 20260901062514 | 61 | 154 | 1.0 | 2.0 | 0.00 | 0.01 | 0.00 | 87 | 1015.1 |
| 20260901062015 | 61 | 190 | 2.0 | 2.0 | 0.00 | 0.01 | 0.00 | 86 | 1015.2 |
| 20260901061531 | 61 | 199 | 1.0 | 2.0 | 0.00 | 0.01 | 0.00 | 86 | 1011.7 |
| 20260901061014 | 61 | 217 | 2.0 | 2.0 | 0.00 | 0.01 | 0.00 | 86 | 1015.1 |
| 20260901060514 | 61 | 212 | 1.0 | 2.0 | 0.00 | 0.01 | 0.00 | 86 | 1015.2 |
| 20260901060031 | 61 | 192 | 1.0 | 2.0 | 0.00 | 0.01 | 0.00 | 86 | 1015.2 |
| 20260901060029 | 62 | 185 | 1.0 | 2.0 | 0.00 | 0.01 | 0.00 | 87 | 1011.8 |
| 20260901055509 | 61 | 212 | 2.0 | 2.0 | 0.00 | 0.01 | 0.00 | 86 | 1015.2 |
| 20260901055011 | 61 | 218 | 1.0 | 2.0 | 0.00 | 0.01 | 0.00 | 86 | 1015.2 |
| 20260901054528 | 61 | 205 | 1.0 | 2.0 | 0.00 | 0.01 | 0.00 | 87 | 1011.8 |
| 20260901054519 | 61 | 205 | 1.0 | 2.0 | 0.00 | 0.01 | 0.00 | 87 | 1015.3 |
| 20260901054009 | 61 | 211 | 1.0 | 4.0 | 0.00 | 0.01 | 0.00 | 87 | 1015.2 |
| 20260901053510 | 61 | 223 | 2.0 | 4.0 | 0.00 | 0.01 | 0.00 | 87 | 1015.2 |
| 20260901053027 | 61 | 219 | 0.0 | 4.0 | 0.00 | 0.01 | 0.00 | 87 | 1011.7 |
| 20260901052511 | 61 | 219 | 2.0 | 3.0 | 0.00 | 0.01 | 0.00 | 86 | 1015.2 |
| 20260901052011 | 61 | 229 | 0.0 | 3.0 | 0.00 | 0.01 | 0.00 | 86 | 1015.2 |
| 20260901051531 | 61 | 240 | 1.0 | 4.0 | 0.00 | 0.01 | 0.00 | 86 | 1015.2 |
| 20260901051524 | 61 | 233 | 1.0 | 4.0 | 0.00 | 0.01 | 0.00 | 86 | 1011.7 |
| 20260901051012 | 62 | 263 | 2.0 | 4.0 | 0.00 | 0.01 | 0.00 | 87 | 1015.2 |
| 20260901050515 | 61 | 278 | 0.0 | 2.0 | 0.00 | 0.01 | 0.00 | 86 | 1015.2 |
| 20260901050031 | 62 | 258 | 0.0 | 3.0 | 0.00 | 0.01 | 0.00 | 85 | 1015.1 |
| 20260901050023 | 62 | 257 | 0.0 | 3.0 | 0.00 | 0.01 | 0.00 | 86 | 1011.6 |
| 20260901045518 | 62 | 238 | 0.0 | 3.0 | 0.00 | 0.01 | 0.01 | 84 | 1015.0 |
| 20260901045014 | 62 | 259 | 1.0 | 3.0 | 0.00 | 0.01 | 0.01 | 84 | 1015.0 |
| 20260901044529 | 62 | 256 | 1.0 | 3.0 | 0.00 | 0.01 | 0.01 | 84 | 1014.9 |
| 20260901044527 | 62 | 237 | 1.0 | 3.0 | 0.00 | 0.01 | 0.01 | 85 | 1011.5 |
| 20260901044008 | 63 | 264 | 1.0 | 3.0 | 0.00 | 0.01 | 0.01 | 84 | 1014.8 |
| 20260901043508 | 63 | 252 | 1.0 | 3.0 | 0.00 | 0.01 | 0.01 | 84 | 1014.9 |
| 20260901043024 | 63 | 195 | 0.0 | 3.0 | 0.00 | 0.01 | 0.01 | 84 | 1011.5 |
| 20260901043020 | 63 | 234 | 0.0 | 3.0 | 0.00 | 0.01 | 0.01 | 83 | 1014.9 |
| 20260901042509 | 63 | 234 | 2.0 | 2.0 | 0.00 | 0.01 | 0.01 | 83 | 1014.8 |
| 20260901042009 | 63 | 233 | 0.0 | 1.0 | 0.00 | 0.01 | 0.01 | 83 | 1014.6 |
| 20260901041526 | 64 | 215 | 0.0 | 1.0 | 0.00 | 0.01 | 0.01 | 83 | 1014.7 |
| 20260901041517 | 64 | 215 | 0.0 | 1.0 | 0.00 | 0.01 | 0.01 | 83 | 1011.2 |
| 20260901041011 | 64 | 205 | 0.0 | 1.0 | 0.00 | 0.01 | 0.01 | 82 | 1014.6 |
| 20260901040514 | 64 | 207 | 0.0 | 2.0 | 0.00 | 0.01 | 0.01 | 82 | 1014.5 |
| 20260901040032 | 64 | 207 | 1.0 | 2.0 | 0.00 | 0.01 | 0.01 | 82 | 1014.6 |
| 20260901040015 | 64 | 207 | 1.0 | 2.0 | 0.00 | 0.01 | 0.01 | 82 | 1011.0 |
| 20260901035517 | 64 | 216 | 1.0 | 3.0 | 0.00 | 0.01 | 0.01 | 81 | 1014.5 |
| 20260901035017 | 65 | 199 | 2.0 | 3.0 | 0.00 | 0.01 | 0.01 | 81 | 1014.4 |
| 20260901034533 | 65 | 188 | 2.0 | 3.0 | 0.00 | 0.01 | 0.01 | 81 | 1014.3 |
| 20260901034527 | 65 | 192 | 1.0 | 3.0 | 0.00 | 0.01 | 0.01 | 81 | 1010.7 |
| 20260901034014 | 65 | 195 | 1.0 | 3.0 | 0.00 | 0.01 | 0.01 | 81 | 1014.3 |
| 20260901033516 | 65 | 191 | 1.0 | 3.0 | 0.00 | 0.01 | 0.01 | 80 | 1014.2 |
| 20260901033033 | 65 | 193 | 2.0 | 3.0 | 0.00 | 0.01 | 0.01 | 80 | 1014.2 |
| 20260901033014 | 65 | 195 | 1.0 | 3.0 | 0.00 | 0.01 | 0.01 | 81 | 1010.8 |
| 20260901032508 | 66 | 195 | 2.0 | 3.0 | 0.00 | 0.01 | 0.01 | 80 | 1014.1 |
| 20260901032008 | 66 | 205 | 2.0 | 3.0 | 0.00 | 0.01 | 0.01 | 80 | 1014.1 |
| 20260901031523 | 66 | 204 | 1.0 | 3.0 | 0.00 | 0.01 | 0.01 | 80 | 1014.1 |
| 20260901031513 | 66 | 202 | 1.0 | 3.0 | 0.00 | 0.01 | 0.01 | 80 | 1010.7 |
| 20260901031012 | 66 | 198 | 2.0 | 3.0 | 0.00 | 0.01 | 0.01 | 80 | 1014.1 |
| 20260901030512 | 67 | 191 | 1.0 | 3.0 | 0.00 | 0.01 | 0.01 | 80 | 1013.9 |
| 20260901030028 | 67 | 209 | 1.0 | 3.0 | 0.00 | 0.01 | 0.01 | 79 | 1013.9 |
| 20260901030013 | 67 | 191 | 1.0 | 3.0 | 0.00 | 0.01 | 0.01 | 80 | 1010.6 |
| 20260901025513 | 67 | 161 | 2.0 | 4.0 | 0.00 | 0.01 | 0.01 | 78 | 1014.0 |
| 20260901025013 | 68 | 157 | 2.0 | 5.0 | 0.00 | 0.01 | 0.01 | 78 | 1014.0 |
| 20260901024528 | 68 | 153 | 3.0 | 5.0 | 0.00 | 0.01 | 0.01 | 77 | 1013.9 |
| 20260901024513 | 68 | 160 | 3.0 | 5.0 | 0.00 | 0.01 | 0.01 | 78 | 1010.4 |
| 20260901024013 | 68 | 174 | 2.0 | 5.0 | 0.00 | 0.01 | 0.01 | 77 | 1013.9 |
| 20260901023514 | 68 | 180 | 3.0 | 6.0 | 0.00 | 0.01 | 0.01 | 77 | 1013.9 |
| 20260901023038 | 68 | 165 | 4.0 | 6.0 | 0.00 | 0.01 | 0.01 | 77 | 1013.9 |
| 20260901023011 | 68 | 155 | 3.0 | 6.0 | 0.00 | 0.01 | 0.01 | 78 | 1010.3 |
| 20260901022514 | 68 | 152 | 4.0 | 6.0 | 0.00 | 0.01 | 0.01 | 78 | 1013.8 |
| 20260901022019 | 68 | 146 | 3.0 | 6.0 | 0.00 | 0.01 | 0.01 | 78 | 1013.9 |
| 20260901021534 | 68 | 162 | 3.0 | 4.0 | 0.00 | 0.01 | 0.01 | 78 | 1013.9 |
| 20260901021515 | 68 | 180 | 2.0 | 4.0 | 0.00 | 0.01 | 0.01 | 78 | 1010.2 |
| 20260901021008 | 69 | 166 | 1.0 | 2.0 | 0.00 | 0.01 | 0.01 | 78 | 1013.8 |
| 20260901020514 | 69 | 165 | 1.0 | 2.0 | 0.00 | 0.01 | 0.01 | 78 | 1013.8 |
| 20260901020026 | 69 | 163 | 0.0 | 3.0 | 0.00 | 0.01 | 0.01 | 77 | 1013.7 |
| 20260901020010 | 69 | 158 | 0.0 | 3.0 | 0.00 | 0.01 | 0.01 | 78 | 1010.0 |
| 20260901015512 | 70 | 201 | 1.0 | 3.0 | 0.00 | 0.01 | 0.01 | 76 | 1013.7 |
| 20260901015019 | 70 | 203 | 2.0 | 3.0 | 0.00 | 0.01 | 0.01 | 75 | 1013.6 |
| 20260901014530 | 71 | 195 | 2.0 | 4.0 | 0.00 | 0.01 | 0.01 | 74 | 1013.4 |
| 20260901014510 | 71 | 204 | 2.0 | 4.0 | 0.00 | 0.01 | 0.01 | 75 | 1009.7 |
| 20260901014014 | 71 | 206 | 2.0 | 5.0 | 0.00 | 0.01 | 0.01 | 73 | 1013.3 |
| 20260901013514 | 72 | 195 | 2.0 | 5.0 | 0.00 | 0.01 | 0.01 | 72 | 1013.3 |
| 20260901013030 | 72 | 146 | 3.0 | 5.0 | 0.00 | 0.01 | 0.01 | 70 | 1013.3 |
| 20260901013009 | 72 | 162 | 2.0 | 5.0 | 0.00 | 0.01 | 0.01 | 71 | 1009.5 |
| 20260901012514 | 73 | 164 | 2.0 | 5.0 | 0.00 | 0.01 | 0.01 | 69 | 1013.3 |
| 20260901012004 | 74 | 140 | 2.0 | 4.0 | 0.00 | 0.01 | 0.01 | 67 | 1013.3 |
| 20260901011513 | 74 | 198 | 1.0 | 4.0 | 0.00 | 0.01 | 0.01 | 67 | 1009.3 |
| 20260901011510 | 74 | 165 | 1.0 | 4.0 | 0.00 | 0.01 | 0.01 | 66 | 1013.3 |
| 20260901011004 | 75 | 134 | 2.0 | 4.0 | 0.00 | 0.01 | 0.01 | 64 | 1013.3 |
| 20260901010503 | 76 | 167 | 1.0 | 4.0 | 0.00 | 0.01 | 0.01 | 63 | 1013.1 |
| 20260901010012 | 76 | 219 | 2.0 | 4.0 | 0.00 | 0.01 | 0.01 | 62 | 1013.3 |
| 20260901010010 | 76 | 171 | 2.0 | 4.0 | 0.00 | 0.01 | 0.01 | 63 | 1009.4 |
| 20260901005503 | 77 | 173 | 2.0 | 3.0 | 0.00 | 0.01 | 0.01 | 60 | 1013.3 |
| 20260901005006 | 77 | 198 | 2.0 | 3.0 | 0.00 | 0.01 | 0.01 | 58 | 1013.4 |
| 20260901004508 | 78 | 205 | 1.0 | 3.0 | 0.00 | 0.01 | 0.01 | 56 | 1009.6 |
| 20260901004504 | 78 | 202 | 1.0 | 3.0 | 0.00 | 0.01 | 0.01 | 56 | 1013.4 |
| 20260901004004 | 78 | 200 | 1.0 | 3.0 | 0.00 | 0.01 | 0.01 | 55 | 1013.4 |
| 20260901003504 | 79 | 192 | 2.0 | 3.0 | 0.00 | 0.01 | 0.01 | 55 | 1013.4 |
| 20260901003018 | 79 | 178 | 1.0 | 2.0 | 0.00 | 0.01 | 0.01 | 54 | 1013.4 |
| 20260901003008 | 79 | 178 | 1.0 | 2.0 | 0.00 | 0.01 | 0.01 | 55 | 1009.5 |
| 20260901002504 | 80 | 191 | 2.0 | 2.0 | 0.00 | 0.01 | 0.01 | 52 | 1013.4 |
| 20260901002005 | 81 | 209 | 2.0 | 3.0 | 0.00 | 0.01 | 0.01 | 52 | 1013.4 |
| 20260901001506 | 81 | 203 | 1.0 | 3.0 | 0.00 | 0.01 | 0.01 | 50 | 1009.4 |
| 20260901001504 | 81 | 196 | 2.0 | 3.0 | 0.00 | 0.01 | 0.01 | 50 | 1013.3 |
| 20260901001005 | 82 | 210 | 2.0 | 3.0 | 0.00 | 0.01 | 0.01 | 48 | 1013.3 |
| 20260901000503 | 82 | 193 | 1.0 | 3.0 | 0.00 | 0.01 | 0.01 | 48 | 1013.2 |
| 20260901000007 | 82 | 188 | 2.0 | 3.0 | 0.00 | 0.01 | 0.01 | 48 | 1013.3 |
| 20260901000004 | 82 | 188 | 1.0 | 3.0 | 0.00 | 0.01 | 0.01 | 49 | 1009.3 |
| 20260831235504 | 82 | 198 | 2.0 | 3.0 | 0.00 | 0.01 | 0.01 | 49 | 1013.2 |
| 20260831235004 | 83 | 207 | 2.0 | 3.0 | 0.00 | 0.01 | 0.01 | 48 | 1013.3 |
| 20260831234507 | 83 | 198 | 2.0 | 3.0 | 0.00 | 0.01 | 0.01 | 47 | 1013.3 |
| 20260831234004 | 83 | 193 | 2.0 | 3.0 | 0.00 | 0.01 | 0.01 | 48 | 1013.3 |
| 20260831233503 | 83 | 200 | 2.0 | 3.0 | 0.00 | 0.01 | 0.01 | 47 | 1013.3 |
| 20260831233007 | 83 | 210 | 1.0 | 3.0 | 0.00 | 0.01 | 0.01 | 47 | 1013.4 |
| 20260831233002 | 83 | 208 | 0.0 | 3.0 | 0.00 | 0.01 | 0.01 | 48 | 1009.5 |
| 20260831232503 | 83 | 205 | 2.0 | 4.0 | 0.00 | 0.01 | 0.01 | 47 | 1013.3 |
| 20260831232003 | 84 | 202 | 2.0 | 4.0 | 0.00 | 0.01 | 0.01 | 45 | 1013.2 |
| 20260831231507 | 84 | 200 | 2.0 | 4.0 | 0.00 | 0.01 | 0.01 | 45 | 1013.3 |
| 20260831231003 | 84 | 214 | 2.0 | 3.0 | 0.00 | 0.01 | 0.01 | 44 | 1013.4 |
| 20260831230504 | 84 | 213 | 2.0 | 4.0 | 0.00 | 0.01 | 0.01 | 45 | 1013.4 |
| 20260831230014 | 83 | 225 | 3.0 | 4.0 | 0.00 | 0.01 | 0.01 | 48 | 1013.3 |
| 20260831230002 | 83 | 236 | 2.0 | 4.0 | 0.00 | 0.01 | 0.01 | 48 | 1009.5 |
| 20260831225503 | 83 | 219 | 2.0 | 5.0 | 0.00 | 0.01 | 0.01 | 47 | 1013.4 |
| 20260831225003 | 83 | 231 | 2.0 | 5.0 | 0.00 | 0.01 | 0.01 | 49 | 1013.5 |
| 20260831224508 | 83 | 225 | 3.0 | 5.0 | 0.00 | 0.01 | 0.01 | 45 | 1013.5 |
| 20260831224501 | 83 | 225 | 2.0 | 5.0 | 0.00 | 0.01 | 0.01 | 45 | 1009.5 |
| 20260831224003 | 83 | 224 | 3.0 | 5.0 | 0.00 | 0.01 | 0.01 | 47 | 1013.3 |
| 20260831223504 | 83 | 225 | 2.0 | 5.0 | 0.00 | 0.01 | 0.01 | 46 | 1013.3 |
| 20260831223105 | 83 | 221 | 2.0 | 5.0 | 0.00 | 0.01 | 0.01 | 46 | 1009.3 |
| 20260831223008 | 83 | 231 | 2.0 | 5.0 | 0.00 | 0.01 | 0.01 | 46 | 1013.3 |
| 20260831222506 | 83 | 233 | 2.0 | 5.0 | 0.00 | 0.01 | 0.01 | 47 | 1013.3 |
| 20260831222004 | 83 | 243 | 3.0 | 5.0 | 0.00 | 0.01 | 0.01 | 46 | 1013.3 |
| 20260831221558 | 83 | 236 | 2.0 | 6.0 | 0.00 | 0.01 | 0.01 | 44 | 1009.3 |
| 20260831221510 | 83 | 227 | 4.0 | 6.0 | 0.00 | 0.01 | 0.01 | 45 | 1013.3 |
| 20260831221003 | 83 | 257 | 3.0 | 6.0 | 0.00 | 0.01 | 0.01 | 45 | 1013.4 |
| 20260831220503 | 83 | 274 | 3.0 | 6.0 | 0.00 | 0.01 | 0.01 | 45 | 1013.3 |
| 20260831220056 | 83 | 238 | 2.0 | 6.0 | 0.00 | 0.01 | 0.01 | 42 | 1009.4 |
| 20260831220008 | 83 | 257 | 3.0 | 6.0 | 0.00 | 0.01 | 0.01 | 44 | 1013.3 |
| 20260831215503 | 83 | 220 | 3.0 | 7.0 | 0.00 | 0.01 | 0.01 | 47 | 1013.4 |
| 20260831215005 | 82 | 208 | 3.0 | 7.0 | 0.00 | 0.01 | 0.01 | 46 | 1013.4 |
| 20260831214556 | 83 | 255 | 3.0 | 7.0 | 0.00 | 0.01 | 0.01 | 47 | 1009.6 |
| 20260831214510 | 83 | 232 | 3.0 | 6.0 | 0.00 | 0.01 | 0.01 | 46 | 1013.4 |
| 20260831214002 | 82 | 263 | 3.0 | 8.0 | 0.00 | 0.01 | 0.01 | 45 | 1013.5 |
| 20260831213503 | 82 | 266 | 3.0 | 8.0 | 0.00 | 0.01 | 0.01 | 45 | 1013.5 |
| 20260831213055 | 82 | 264 | 5.0 | 8.0 | 0.00 | 0.01 | 0.01 | 44 | 1009.6 |
| 20260831213008 | 82 | 239 | 4.0 | 8.0 | 0.00 | 0.01 | 0.01 | 44 | 1013.5 |
| 20260831212503 | 82 | 226 | 5.0 | 8.0 | 0.00 | 0.01 | 0.01 | 42 | 1013.6 |
| 20260831212004 | 83 | 197 | 4.0 | 8.0 | 0.00 | 0.01 | 0.01 | 48 | 1013.7 |
| 20260831211553 | 82 | 190 | 2.0 | 6.0 | 0.00 | 0.01 | 0.01 | 49 | 1009.7 |
| 20260831211507 | 82 | 252 | 3.0 | 6.0 | 0.00 | 0.01 | 0.01 | 47 | 1013.7 |
| 20260831211005 | 82 | 224 | 3.0 | 6.0 | 0.00 | 0.01 | 0.01 | 46 | 1013.8 |
| 20260831210504 | 82 | 227 | 4.0 | 9.0 | 0.00 | 0.01 | 0.01 | 45 | 1013.8 |
| 20260831210052 | 82 | 238 | 2.0 | 9.0 | 0.00 | 0.01 | 0.01 | 47 | 1009.8 |
| 20260831210008 | 82 | 220 | 3.0 | 9.0 | 0.00 | 0.01 | 0.01 | 46 | 1013.8 |
| 20260831205502 | 82 | 231 | 6.0 | 9.0 | 0.00 | 0.01 | 0.01 | 44 | 1013.8 |
| 20260831205004 | 82 | 208 | 3.0 | 8.0 | 0.00 | 0.01 | 0.01 | 46 | 1013.8 |
| 20260831204650 | 81 | 233 | 3.0 | 8.0 | 0.00 | 0.01 | 0.01 | 49 | 1009.9 |
| 20260831204510 | 81 | 286 | 4.0 | 8.0 | 0.00 | 0.01 | 0.01 | 46 | 1013.9 |
| 20260831204006 | 81 | 221 | 4.0 | 9.0 | 0.00 | 0.01 | 0.01 | 44 | 1014.0 |
| 20260831203506 | 81 | 233 | 4.0 | 9.0 | 0.00 | 0.01 | 0.01 | 46 | 1014.1 |
| 20260831203049 | 81 | 212 | 5.0 | 9.0 | 0.00 | 0.01 | 0.01 | 44 | 1010.2 |
| 20260831203010 | 81 | 262 | 5.0 | 8.0 | 0.00 | 0.01 | 0.01 | 48 | 1014.1 |
| 20260831202503 | 81 | 231 | 5.0 | 8.0 | 0.00 | 0.01 | 0.01 | 45 | 1014.0 |
| 20260831202003 | 81 | 233 | 4.0 | 8.0 | 0.00 | 0.01 | 0.01 | 45 | 1014.0 |
| 20260831201550 | 81 | 228 | 4.0 | 8.0 | 0.00 | 0.01 | 0.01 | 45 | 1010.1 |
| 20260831201511 | 81 | 226 | 4.0 | 8.0 | 0.00 | 0.01 | 0.01 | 46 | 1013.9 |
| 20260831201003 | 81 | 234 | 5.0 | 8.0 | 0.00 | 0.01 | 0.01 | 44 | 1014.0 |
| 20260831200503 | 81 | 201 | 4.0 | 7.0 | 0.00 | 0.01 | 0.01 | 44 | 1014.0 |
| 20260831200049 | 81 | 232 | 4.0 | 9.0 | 0.00 | 0.01 | 0.01 | 45 | 1010.1 |
| 20260831200015 | 81 | 236 | 4.0 | 9.0 | 0.00 | 0.01 | 0.01 | 49 | 1014.1 |
| 20260831195506 | 80 | 250 | 4.0 | 9.0 | 0.00 | 0.01 | 0.01 | 48 | 1014.1 |
| 20260831195005 | 80 | 231 | 4.0 | 8.0 | 0.00 | 0.01 | 0.01 | 46 | 1014.3 |
| 20260831194605 | 80 | 266 | 4.0 | 8.0 | 0.00 | 0.01 | 0.01 | 46 | 1010.2 |
| 20260831194512 | 80 | 272 | 5.0 | 8.0 | 0.00 | 0.01 | 0.01 | 46 | 1014.2 |
| 20260831194006 | 80 | 275 | 4.0 | 11.0 | 0.00 | 0.01 | 0.01 | 46 | 1014.3 |
| 20260831193506 | 79 | 250 | 5.0 | 11.0 | 0.00 | 0.01 | 0.01 | 47 | 1014.3 |
| 20260831193046 | 79 | 221 | 5.0 | 11.0 | 0.00 | 0.01 | 0.01 | 45 | 1010.5 |
| 20260831193016 | 79 | 256 | 5.0 | 11.0 | 0.00 | 0.01 | 0.01 | 46 | 1014.4 |
| 20260831192503 | 79 | 259 | 5.0 | 9.0 | 0.00 | 0.01 | 0.01 | 46 | 1014.2 |
| 20260831192007 | 79 | 230 | 5.0 | 9.0 | 0.00 | 0.01 | 0.01 | 46 | 1014.3 |
| 20260831191541 | 79 | 236 | 3.0 | 8.0 | 0.00 | 0.01 | 0.01 | 47 | 1010.5 |
| 20260831191510 | 79 | 232 | 3.0 | 8.0 | 0.00 | 0.01 | 0.01 | 46 | 1014.3 |
| 20260831191006 | 79 | 194 | 3.0 | 10.0 | 0.00 | 0.01 | 0.01 | 46 | 1014.4 |
| 20260831190506 | 79 | 264 | 3.0 | 10.0 | 0.00 | 0.01 | 0.01 | 47 | 1014.4 |
| 20260831190105 | 78 | 238 | 5.0 | 10.0 | 0.00 | 0.01 | 0.01 | 46 | 1010.6 |
| 20260831190015 | 78 | 236 | 5.0 | 10.0 | 0.00 | 0.01 | 0.01 | 46 | 1014.5 |
| 20260831185506 | 78 | 248 | 3.0 | 11.0 | 0.00 | 0.01 | 0.01 | 49 | 1014.6 |
| 20260831185004 | 78 | 248 | 4.0 | 11.0 | 0.00 | 0.01 | 0.01 | 46 | 1014.6 |
| 20260831184541 | 78 | 234 | 4.0 | 9.0 | 0.00 | 0.01 | 0.01 | 46 | 1010.8 |
| 20260831184514 | 78 | 251 | 4.0 | 9.0 | 0.00 | 0.01 | 0.01 | 45 | 1014.6 |
| 20260831184006 | 78 | 242 | 5.0 | 8.0 | 0.00 | 0.01 | 0.01 | 46 | 1014.6 |
| 20260831183506 | 78 | 203 | 4.0 | 7.0 | 0.00 | 0.01 | 0.01 | 48 | 1014.7 |
| 20260831183038 | 78 | 319 | 3.0 | 7.0 | 0.00 | 0.01 | 0.01 | 50 | 1010.8 |
| 20260831183023 | 78 | 270 | 4.0 | 7.0 | 0.00 | 0.01 | 0.01 | 48 | 1014.7 |
| 20260831182503 | 78 | 307 | 1.0 | 6.0 | 0.00 | 0.01 | 0.01 | 50 | 1014.7 |
| 20260831182007 | 77 | 241 | 4.0 | 8.0 | 0.00 | 0.01 | 0.01 | 46 | 1014.7 |
| 20260831181544 | 77 | 255 | 2.0 | 8.0 | 0.00 | 0.01 | 0.01 | 46 | 1010.9 |
| 20260831181512 | 77 | 241 | 3.0 | 8.0 | 0.00 | 0.01 | 0.01 | 46 | 1014.8 |
| 20260831181006 | 77 | 233 | 3.0 | 7.0 | 0.00 | 0.01 | 0.01 | 47 | 1014.7 |
| 20260831180509 | 77 | 229 | 2.0 | 8.0 | 0.00 | 0.01 | 0.01 | 50 | 1014.7 |
| 20260831180033 | 77 | 251 | 1.0 | 8.0 | 0.00 | 0.01 | 0.01 | 48 | 1010.9 |
| 20260831180024 | 77 | 226 | 2.0 | 8.0 | 0.00 | 0.01 | 0.01 | 48 | 1014.7 |
| 20260831175508 | 77 | 264 | 3.0 | 8.0 | 0.00 | 0.01 | 0.01 | 48 | 1014.9 |
| 20260831175007 | 77 | 221 | 3.0 | 6.0 | 0.00 | 0.01 | 0.01 | 47 | 1014.7 |
| 20260831174534 | 77 | 267 | 2.0 | 7.0 | 0.00 | 0.01 | 0.01 | 54 | 1011.0 |
| 20260831174521 | 77 | 280 | 2.0 | 7.0 | 0.00 | 0.01 | 0.01 | 52 | 1014.8 |
| 20260831174009 | 76 | 257 | 4.0 | 7.0 | 0.00 | 0.01 | 0.01 | 55 | 1014.8 |
| 20260831173504 | 76 | 266 | 2.0 | 6.0 | 0.00 | 0.01 | 0.01 | 50 | 1014.8 |
| 20260831173031 | 76 | 254 | 1.0 | 5.0 | 0.00 | 0.01 | 0.01 | 60 | 1011.1 |
| 20260831173015 | 76 | 270 | 1.0 | 5.0 | 0.00 | 0.01 | 0.01 | 59 | 1014.7 |
| 20260831172504 | 76 | 245 | 2.0 | 5.0 | 0.00 | 0.01 | 0.01 | 58 | 1014.7 |
| 20260831172004 | 76 | 288 | 2.0 | 5.0 | 0.00 | 0.01 | 0.01 | 57 | 1014.8 |
| 20260831171529 | 76 | 5 | 0.0 | 4.0 | 0.00 | 0.01 | 0.01 | 60 | 1011.1 |
| 20260831171514 | 75 | 64 | 1.0 | 8.0 | 0.00 | 0.01 | 0.01 | 60 | 1014.7 |
| 20260831171008 | 75 | 236 | 1.0 | 8.0 | 0.00 | 0.01 | 0.01 | 61 | 1014.7 |
| 20260831170508 | 74 | 238 | 3.0 | 8.0 | 0.00 | 0.01 | 0.01 | 60 | 1014.7 |
| 20260831170025 | 74 | 268 | 2.0 | 6.0 | 0.00 | 0.01 | 0.01 | 60 | 1011.1 |
| 20260831170015 | 74 | 266 | 3.0 | 6.0 | 0.00 | 0.01 | 0.01 | 60 | 1014.7 |
| 20260831165507 | 74 | 221 | 3.0 | 6.0 | 0.00 | 0.01 | 0.01 | 60 | 1014.7 |
| 20260831165007 | 74 | 280 | 2.0 | 7.0 | 0.00 | 0.01 | 0.01 | 62 | 1014.7 |
| 20260831164528 | 73 | 279 | 2.0 | 7.0 | 0.00 | 0.01 | 0.01 | 66 | 1014.7 |
| 20260831164523 | 73 | 269 | 1.0 | 7.0 | 0.00 | 0.01 | 0.01 | 67 | 1011.0 |
| 20260831164009 | 73 | 227 | 3.0 | 7.0 | 0.00 | 0.01 | 0.01 | 66 | 1014.7 |
| 20260831163504 | 73 | 245 | 2.0 | 5.0 | 0.00 | 0.01 | 0.01 | 65 | 1014.6 |
| 20260831163021 | 72 | 312 | 0.0 | 6.0 | 0.00 | 0.01 | 0.01 | 67 | 1011.0 |
| 20260831163014 | 72 | 355 | 1.0 | 6.0 | 0.00 | 0.01 | 0.01 | 67 | 1014.6 |
| 20260831162512 | 72 | 222 | 3.0 | 6.0 | 0.00 | 0.01 | 0.01 | 68 | 1014.6 |
| 20260831162008 | 72 | 287 | 3.0 | 7.0 | 0.00 | 0.01 | 0.01 | 69 | 1014.6 |
| 20260831161518 | 71 | 307 | 0.0 | 7.0 | 0.00 | 0.01 | 0.01 | 72 | 1011.0 |
| 20260831161506 | 71 | 316 | 1.0 | 7.0 | 0.00 | 0.01 | 0.01 | 71 | 1014.5 |
| 20260831161002 | 71 | 269 | 2.0 | 6.0 | 0.00 | 0.01 | 0.01 | 71 | 1014.6 |
| 20260831160505 | 70 | 284 | 2.0 | 7.0 | 0.00 | 0.01 | 0.01 | 73 | 1014.6 |
| 20260831160020 | 69 | 250 | 2.0 | 7.0 | 0.00 | 0.01 | 0.01 | 73 | 1010.9 |
| 20260831160012 | 70 | 227 | 2.0 | 7.0 | 0.00 | 0.01 | 0.01 | 72 | 1014.6 |
| 20260831155506 | 69 | 243 | 3.0 | 6.0 | 0.00 | 0.01 | 0.01 | 74 | 1014.5 |
| 20260831155008 | 69 | 231 | 3.0 | 6.0 | 0.00 | 0.01 | 0.01 | 75 | 1014.4 |
| 20260831154539 | 69 | 216 | 3.0 | 7.0 | 0.00 | 0.01 | 0.01 | 76 | 1014.5 |
| 20260831154523 | 69 | 239 | 2.0 | 7.0 | 0.00 | 0.01 | 0.01 | 76 | 1010.7 |
| 20260831154010 | 68 | 223 | 3.0 | 7.0 | 0.00 | 0.01 | 0.01 | 75 | 1014.5 |
| 20260831153508 | 68 | 224 | 3.0 | 6.0 | 0.00 | 0.01 | 0.01 | 78 | 1014.5 |
| 20260831153016 | 67 | 241 | 3.0 | 7.0 | 0.00 | 0.01 | 0.01 | 78 | 1010.8 |
| 20260831152511 | 67 | 231 | 4.0 | 8.0 | 0.00 | 0.01 | 0.01 | 76 | 1014.6 |
| 20260831152008 | 67 | 256 | 4.0 | 8.0 | 0.00 | 0.01 | 0.01 | 78 | 1014.5 |
| 20260831151519 | 66 | 240 | 3.0 | 8.0 | 0.00 | 0.01 | 0.01 | 79 | 1014.4 |
| 20260831151513 | 66 | 241 | 2.0 | 8.0 | 0.00 | 0.01 | 0.01 | 80 | 1010.6 |
| 20260831151004 | 66 | 278 | 5.0 | 7.0 | 0.00 | 0.01 | 0.01 | 81 | 1014.3 |
| 20260831150507 | 66 | 218 | 4.0 | 6.0 | 0.00 | 0.01 | 0.01 | 80 | 1014.3 |
| 20260831150012 | 65 | 245 | 3.0 | 7.0 | 0.00 | 0.01 | 0.01 | 81 | 1014.2 |
| 20260831145506 | 65 | 250 | 3.0 | 7.0 | 0.00 | 0.01 | 0.01 | 82 | 1014.3 |
| 20260831145005 | 65 | 240 | 3.0 | 5.0 | 0.00 | 0.01 | 0.01 | 82 | 1014.4 |
| 20260831144517 | 65 | 232 | 2.0 | 6.0 | 0.00 | 0.01 | 0.01 | 84 | 1014.3 |
| 20260831144510 | 65 | 230 | 2.0 | 4.0 | 0.00 | 0.01 | 0.01 | 84 | 1010.6 |
| 20260831144006 | 64 | 244 | 1.0 | 6.0 | 0.00 | 0.01 | 0.01 | 85 | 1014.4 |
| 20260831143506 | 63 | 236 | 4.0 | 6.0 | 0.00 | 0.01 | 0.01 | 84 | 1014.5 |
| 20260831143021 | 63 | 233 | 3.0 | 6.0 | 0.01 | 0.01 | 0.01 | 84 | 1014.4 |
| 20260831143010 | 63 | 250 | 3.0 | 6.0 | 0.00 | 0.01 | 0.01 | 85 | 1010.7 |
| 20260831142509 | 63 | 229 | 3.0 | 6.0 | 0.01 | 0.01 | 0.01 | 86 | 1014.4 |
| 20260831142006 | 63 | 233 | 4.0 | 6.0 | 0.01 | 0.01 | 0.01 | 85 | 1014.4 |
| 20260831141520 | 62 | 270 | 3.0 | 6.0 | 0.01 | 0.01 | 0.01 | 86 | 1014.3 |
| 20260831141506 | 62 | 245 | 3.0 | 6.0 | 0.01 | 0.01 | 0.01 | 86 | 1010.5 |
| 20260831141008 | 62 | 245 | 2.0 | 5.0 | 0.01 | 0.01 | 0.01 | 86 | 1014.2 |
| 20260831140510 | 61 | 231 | 3.0 | 6.0 | 0.01 | 0.01 | 0.01 | 86 | 1014.2 |
| 20260831140023 | 61 | 248 | 2.0 | 6.0 | 0.01 | 0.01 | 0.01 | 87 | 1014.2 |
| 20260831140007 | 61 | 249 | 1.0 | 6.0 | 0.01 | 0.01 | 0.01 | 87 | 1010.4 |
| 20260831135505 | 61 | 264 | 2.0 | 5.0 | 0.01 | 0.01 | 0.01 | 88 | 1014.3 |
| 20260831135005 | 60 | 242 | 3.0 | 5.0 | 0.01 | 0.01 | 0.01 | 88 | 1014.2 |
| 20260831134512 | 60 | 248 | 3.0 | 4.0 | 0.01 | 0.01 | 0.01 | 89 | 1014.1 |
| 20260831134508 | 60 | 218 | 3.0 | 4.0 | 0.01 | 0.01 | 0.01 | 90 | 1010.2 |
| 20260831134006 | 59 | 240 | 2.0 | 4.0 | 0.01 | 0.01 | 0.01 | 90 | 1013.9 |
| 20260831133509 | 59 | 240 | 3.0 | 5.0 | 0.01 | 0.01 | 0.01 | 90 | 1013.8 |
| 20260831133018 | 59 | 225 | 3.0 | 5.0 | 0.00 | 0.00 | 0.00 | 91 | 1013.9 |
| 20260831133008 | 59 | 231 | 2.0 | 5.0 | 0.00 | 0.00 | 0.00 | 91 | 1010.1 |
| 20260831132510 | 59 | 241 | 1.0 | 3.0 | 0.00 | 0.00 | 0.00 | 91 | 1013.8 |
| 20260831132008 | 59 | 224 | 2.0 | 3.0 | 0.00 | 0.00 | 0.00 | 91 | 1013.6 |
| 20260831131523 | 59 | 228 | 2.0 | 3.0 | 0.00 | 0.00 | 0.00 | 91 | 1013.6 |
| 20260831131501 | 59 | 228 | 1.0 | 3.0 | 0.00 | 0.00 | 0.00 | 92 | 1009.7 |
| 20260831131012 | 58 | 257 | 1.0 | 3.0 | 0.00 | 0.00 | 0.00 | 92 | 1013.6 |
| 20260831130510 | 58 | 252 | 0.0 | 3.0 | 0.00 | 0.00 | 0.00 | 93 | 1013.6 |
| 20260831130101 | 57 | 226 | 2.0 | 3.0 | 0.00 | 0.00 | 0.00 | 93 | 1009.9 |
| 20260831130022 | 57 | 225 | 2.0 | 3.0 | 0.00 | 0.00 | 0.00 | 93 | 1013.6 |
| 20260831125508 | 57 | 195 | 2.0 | 3.0 | 0.00 | 0.00 | 0.00 | 93 | 1013.6 |
| 20260831125009 | 57 | 212 | 1.0 | 3.0 | 0.00 | 0.00 | 0.00 | 94 | 1013.5 |
| 20260831124559 | 56 | 254 | 0.0 | 2.0 | 0.00 | 0.00 | 0.00 | 94 | 1009.7 |
| 20260831124525 | 56 | 253 | 0.0 | 2.0 | 0.00 | 0.00 | 0.00 | 94 | 1013.4 |
| 20260831124005 | 56 | 238 | 0.0 | 0.0 | 0.00 | 0.00 | 0.00 | 94 | 1013.3 |
| 20260831123509 | 56 | 252 | 0.0 | 1.0 | 0.00 | 0.00 | 0.00 | 94 | 1013.1 |
| 20260831123056 | 56 | 271 | 0.0 | 1.0 | 0.00 | 0.00 | 0.00 | 95 | 1009.3 |
| 20260831123012 | 56 | 270 | 0.0 | 1.0 | 0.00 | 0.00 | 0.00 | 94 | 1013.1 |
| 20260831122509 | 56 | 240 | 0.0 | 0.0 | 0.00 | 0.00 | 0.00 | 94 | 1013.0 |
| 20260831122008 | 56 | 238 | 0.0 | 0.0 | 0.00 | 0.00 | 0.00 | 94 | 1012.9 |
| 20260831121606 | 56 | 274 | 0.0 | 0.0 | 0.00 | 0.00 | 0.00 | 94 | 1009.0 |
| 20260831121522 | 56 | 274 | 0.0 | 0.0 | 0.00 | 0.00 | 0.00 | 94 | 1012.8 |
| 20260831121010 | 56 | 315 | 0.0 | 0.0 | 0.00 | 0.00 | 0.00 | 93 | 1012.7 |
| 20260831120512 | 56 | 315 | 0.0 | 0.0 | 0.00 | 0.00 | 0.00 | 93 | 1012.7 |
| 20260831120052 | 57 | 315 | 0.0 | 0.0 | 0.00 | 0.00 | 0.00 | 94 | 1008.8 |
| 20260831120035 | 57 | 315 | 0.0 | 0.0 | 0.00 | 0.00 | 0.00 | 94 | 1012.7 |
| 20260831115510 | 57 | 315 | 0.0 | 0.0 | 0.00 | 0.00 | 0.00 | 94 | 1012.6 |
| 20260831115010 | 57 | 315 | 0.0 | 0.0 | 0.00 | 0.00 | 0.00 | 94 | 1012.5 |
| 20260831114550 | 57 | 315 | 0.0 | 0.0 | 0.00 | 0.00 | 0.00 | 94 | 1008.5 |
| 20260831114533 | 57 | 315 | 0.0 | 0.0 | 0.00 | 0.00 | 0.00 | 93 | 1012.3 |
| 20260831114010 | 57 | 315 | 0.0 | 0.0 | 0.00 | 0.00 | 0.00 | 94 | 1012.1 |
| 20260831113510 | 57 | 315 | 0.0 | 0.0 | 0.00 | 0.00 | 0.00 | 94 | 1012.1 |
| 20260831113055 | 57 | 315 | 0.0 | 0.0 | 0.00 | 0.00 | 0.00 | 94 | 1008.4 |
| 20260831113027 | 57 | 315 | 0.0 | 0.0 | 0.00 | 0.00 | 0.00 | 94 | 1012.2 |
| 20260831112507 | 57 | 315 | 0.0 | 0.0 | 0.00 | 0.00 | 0.00 | 94 | 1012.1 |
| 20260831112007 | 58 | 315 | 0.0 | 0.0 | 0.00 | 0.00 | 0.00 | 94 | 1012.2 |
| 20260831111547 | 58 | 315 | 0.0 | 0.0 | 0.00 | 0.00 | 0.00 | 94 | 1008.3 |
| 20260831111517 | 58 | 315 | 0.0 | 0.0 | 0.00 | 0.00 | 0.00 | 94 | 1012.2 |
| 20260831111011 | 58 | 315 | 0.0 | 0.0 | 0.00 | 0.00 | 0.00 | 94 | 1012.2 |
| 20260831110514 | 58 | 315 | 0.0 | 0.0 | 0.00 | 0.00 | 0.00 | 93 | 1012.1 |
| 20260831110044 | 58 | 315 | 0.0 | 1.0 | 0.00 | 0.00 | 0.00 | 94 | 1008.1 |
| 20260831110023 | 58 | 315 | 0.0 | 1.0 | 0.00 | 0.00 | 0.00 | 93 | 1012.0 |
| 20260831105511 | 58 | 315 | 0.0 | 1.0 | 0.00 | 0.00 | 0.00 | 93 | 1012.0 |
| 20260831105012 | 58 | 318 | 0.0 | 2.0 | 0.00 | 0.01 | 0.00 | 93 | 1011.9 |
| 20260831104551 | 58 | 318 | 0.0 | 2.0 | 0.00 | 0.01 | 0.00 | 93 | 1008.0 |
| 20260831104526 | 58 | 318 | 0.0 | 2.0 | 0.00 | 0.01 | 0.00 | 93 | 1011.9 |
| 20260831104009 | 58 | 318 | 1.0 | 2.0 | 0.00 | 0.01 | 0.00 | 93 | 1011.8 |